| time (UTC) | temp C | wind direction | speed KPH | gust KPH | rain 1hr cm | rain 24hr cm | rain mn cm | humidity % | barometer mb |
| 20260506091937 | 24 | 128 | 6.4 | 14.5 | 0.00 | 0.00 | 0.00 | 89 | 1006.4 |
| 20260506091423 | 24 | 120 | 6.4 | 14.5 | 0.00 | 0.00 | 0.00 | 89 | 1006.2 |
| 20260506090919 | 24 | 122 | 8.0 | 14.5 | 0.00 | 0.00 | 0.00 | 89 | 1006.2 |
| 20260506085918 | 24 | 128 | 6.4 | 17.7 | 0.00 | 0.00 | 0.00 | 89 | 1006.3 |
| 20260506085640 | 24 | 126 | 4.8 | 16.1 | 0.00 | 0.00 | 0.00 | 89 | 1006.3 |
| 20260506084917 | 24 | 134 | 6.4 | 12.9 | 0.00 | 0.00 | 0.00 | 89 | 1006.3 |
| 20260506084417 | 24 | 134 | 6.4 | 14.5 | 0.00 | 0.00 | 0.00 | 89 | 1006.2 |
| 20260506083918 | 24 | 144 | 8.0 | 14.5 | 0.00 | 0.00 | 0.00 | 89 | 1006.2 |
| 20260506083416 | 24 | 134 | 8.0 | 14.5 | 0.00 | 0.00 | 0.00 | 89 | 1006.2 |
| 20260506082916 | 24 | 147 | 6.4 | 12.9 | 0.00 | 0.00 | 0.00 | 88 | 1006.2 |
| 20260506082641 | 24 | 135 | 8.0 | 14.5 | 0.00 | 0.00 | 0.00 | 89 | 1006.2 |
| 20260506081916 | 24 | 154 | 8.0 | 14.5 | 0.00 | 0.00 | 0.00 | 88 | 1006.2 |
| 20260506081416 | 24 | 153 | 8.0 | 14.5 | 0.00 | 0.00 | 0.00 | 88 | 1006.5 |
| 20260506080916 | 24 | 90 | 6.4 | 14.5 | 0.00 | 0.00 | 0.00 | 88 | 1006.5 |
| 20260506080416 | 24 | 141 | 6.4 | 14.5 | 0.00 | 0.00 | 0.00 | 88 | 1006.5 |
| 20260506073333 | 25 | 145 | 6.4 | 14.5 | 0.00 | 0.00 | 0.00 | 88 | 1006.8 |
| 20260506072827 | 25 | 133 | 6.4 | 14.5 | 0.00 | 0.00 | 0.00 | 88 | 1007.1 |
| 20260506072322 | 25 | 146 | 8.0 | 12.9 | 0.00 | 0.00 | 0.00 | 88 | 1007.1 |
| 20260506071822 | 25 | 156 | 8.0 | 14.5 | 0.00 | 0.00 | 0.00 | 88 | 1007.1 |
| 20260506071323 | 25 | 151 | 9.7 | 16.1 | 0.00 | 0.00 | 0.00 | 88 | 1007.2 |
| 20260506071043 | 25 | 90 | 9.7 | 16.1 | 0.00 | 0.00 | 0.00 | 88 | 1007.2 |
| 20260506070318 | 25 | 90 | 9.7 | 14.5 | 0.00 | 0.00 | 0.00 | 88 | 1007.2 |
| 20260506062306 | 25 | 157 | 9.7 | 20.9 | 0.00 | 0.00 | 0.00 | 88 | 1007.7 |
| 20260506061756 | 25 | 169 | 9.7 | 20.9 | 0.00 | 0.00 | 0.00 | 88 | 1007.7 |
| 20260506061250 | 25 | 90 | 11.3 | 19.3 | 0.00 | 0.00 | 0.00 | 88 | 1007.7 |
| 20260506060741 | 25 | 170 | 9.7 | 19.3 | 0.00 | 0.00 | 0.00 | 88 | 1007.7 |
| 20260506060231 | 25 | 164 | 11.3 | 19.3 | 0.00 | 0.00 | 0.00 | 88 | 1007.7 |
| 20260506051109 | 25 | 170 | 14.5 | 22.5 | 0.00 | 0.00 | 0.00 | 88 | 1007.2 |
| 20260506050558 | 25 | 158 | 14.5 | 22.5 | 0.00 | 0.00 | 0.00 | 88 | 1007.2 |
| 20260506045039 | 25 | 90 | 16.1 | 25.7 | 0.00 | 0.00 | 0.00 | 88 | 1007.1 |
| 20260506044529 | 25 | 90 | 16.1 | 25.7 | 0.00 | 0.00 | 0.00 | 88 | 1007.1 |
| 20260506044023 | 25 | 117 | 14.5 | 29.0 | 0.00 | 0.00 | 0.00 | 88 | 1007.0 |
| 20260506043517 | 25 | 161 | 14.5 | 29.0 | 0.00 | 0.00 | 0.00 | 88 | 1007.0 |
| 20260506043016 | 25 | 169 | 16.1 | 27.4 | 0.00 | 0.00 | 0.00 | 87 | 1007.0 |
| 20260506042518 | 25 | 158 | 16.1 | 27.4 | 0.00 | 0.00 | 0.00 | 87 | 1006.8 |
| 20260506042016 | 25 | 147 | 17.7 | 29.0 | 0.00 | 0.00 | 0.00 | 87 | 1006.8 |
| 20260506041516 | 25 | 149 | 19.3 | 29.0 | 0.00 | 0.00 | 0.00 | 87 | 1006.8 |
| 20260506041016 | 25 | 90 | 19.3 | 29.0 | 0.00 | 0.00 | 0.00 | 87 | 1006.9 |
| 20260506040516 | 25 | 90 | 17.7 | 27.4 | 0.00 | 0.00 | 0.00 | 87 | 1006.9 |
| 20260506040017 | 25 | 90 | 17.7 | 27.4 | 0.00 | 0.00 | 0.00 | 87 | 1006.9 |
| 20260506035516 | 25 | 90 | 17.7 | 32.2 | 0.00 | 0.00 | 0.00 | 87 | 1006.7 |
| 20260506035018 | 25 | 90 | 17.7 | 32.2 | 0.00 | 0.00 | 0.00 | 87 | 1006.7 |
| 20260506034517 | 25 | 90 | 19.3 | 33.8 | 0.00 | 0.00 | 0.00 | 87 | 1006.7 |
| 20260506034017 | 25 | 151 | 17.7 | 33.8 | 0.00 | 0.00 | 0.00 | 87 | 1006.7 |
| 20260506033515 | 25 | 134 | 17.7 | 27.4 | 0.00 | 0.00 | 0.00 | 87 | 1006.7 |
| 20260506033006 | 25 | 90 | 16.1 | 27.4 | 0.00 | 0.00 | 0.00 | 87 | 1006.7 |
| 20260506032503 | 25 | 148 | 14.5 | 25.7 | 0.00 | 0.00 | 0.00 | 87 | 1006.7 |
| 20260506031949 | 25 | 141 | 12.9 | 25.7 | 0.00 | 0.00 | 0.00 | 87 | 1006.7 |
| 20260506031440 | 25 | 172 | 14.5 | 25.7 | 0.00 | 0.00 | 0.00 | 87 | 1006.7 |
| 20260506030933 | 25 | 166 | 14.5 | 25.7 | 0.00 | 0.00 | 0.00 | 87 | 1006.7 |
| 20260506030429 | 25 | 161 | 12.9 | 22.5 | 0.00 | 0.00 | 0.00 | 87 | 1006.7 |
| 20260506025930 | 25 | 152 | 14.5 | 20.9 | 0.00 | 0.00 | 0.00 | 87 | 1006.5 |
| 20260506025428 | 25 | 172 | 12.9 | 24.1 | 0.00 | 0.00 | 0.00 | 87 | 1006.5 |
| 20260506024934 | 25 | 149 | 11.3 | 24.1 | 0.00 | 0.00 | 0.00 | 87 | 1006.5 |
| 20260506024426 | 25 | 157 | 12.9 | 24.1 | 0.00 | 0.00 | 0.00 | 87 | 1006.2 |
| 20260506024154 | 25 | 155 | 12.9 | 24.1 | 0.00 | 0.00 | 0.00 | 87 | 1006.2 |
| 20260506023424 | 25 | 152 | 14.5 | 20.9 | 0.00 | 0.00 | 0.00 | 86 | 1006.2 |
| 20260506022925 | 25 | 161 | 14.5 | 20.9 | 0.00 | 0.00 | 0.00 | 86 | 1006.1 |
| 20260506022422 | 25 | 90 | 14.5 | 25.7 | 0.00 | 0.00 | 0.00 | 86 | 1006.1 |
| 20260506021922 | 25 | 174 | 14.5 | 25.7 | 0.00 | 0.00 | 0.00 | 86 | 1006.1 |
| 20260506021423 | 25 | 146 | 14.5 | 22.5 | 0.00 | 0.00 | 0.00 | 86 | 1005.7 |
| 20260506021132 | 25 | 171 | 16.1 | 22.5 | 0.00 | 0.00 | 0.00 | 86 | 1005.7 |
| 20260506020355 | 25 | 134 | 16.1 | 22.5 | 0.00 | 0.00 | 0.00 | 86 | 1005.7 |
| 20260506015843 | 25 | 166 | 14.5 | 25.7 | 0.00 | 0.00 | 0.00 | 86 | 1005.7 |
| 20260506015340 | 25 | 132 | 14.5 | 25.7 | 0.00 | 0.00 | 0.00 | 86 | 1005.7 |
| 20260506014840 | 25 | 147 | 16.1 | 24.1 | 0.00 | 0.00 | 0.00 | 86 | 1005.7 |
| 20260506014340 | 25 | 159 | 17.7 | 24.1 | 0.00 | 0.00 | 0.00 | 86 | 1005.5 |
| 20260506013841 | 25 | 159 | 17.7 | 25.7 | 0.00 | 0.00 | 0.00 | 86 | 1005.5 |
| 20260506013342 | 25 | 164 | 16.1 | 25.7 | 0.00 | 0.00 | 0.00 | 86 | 1005.5 |
| 20260506012838 | 25 | 164 | 17.7 | 27.4 | 0.00 | 0.00 | 0.00 | 86 | 1005.1 |
| 20260506012339 | 25 | 177 | 19.3 | 29.0 | 0.00 | 0.00 | 0.00 | 86 | 1005.1 |
| 20260506012102 | 25 | 143 | 19.3 | 29.0 | 0.00 | 0.00 | 0.00 | 86 | 1005.1 |
| 20260506011554 | 25 | 90 | 19.3 | 29.0 | 0.00 | 0.00 | 0.00 | 85 | 1005.1 |
| 20260506010827 | 25 | 90 | 17.7 | 29.0 | 0.00 | 0.00 | 0.00 | 85 | 1005.1 |
| 20260506010325 | 25 | 174 | 17.7 | 30.6 | 0.00 | 0.00 | 0.00 | 85 | 1005.1 |
| 20260506010054 | 25 | 165 | 19.3 | 30.6 | 0.00 | 0.00 | 0.00 | 85 | 1005.0 |
| 20260506005326 | 25 | 184 | 17.7 | 30.6 | 0.00 | 0.00 | 0.00 | 85 | 1005.0 |
| 20260506004818 | 25 | 90 | 17.7 | 30.6 | 0.00 | 0.00 | 0.00 | 85 | 1005.0 |
| 20260506004318 | 25 | 166 | 19.3 | 32.2 | 0.00 | 0.00 | 0.00 | 85 | 1004.8 |
| 20260506004043 | 26 | 90 | 19.3 | 33.8 | 0.00 | 0.00 | 0.00 | 85 | 1004.8 |
| 20260506003315 | 26 | 90 | 17.7 | 33.8 | 0.00 | 0.00 | 0.00 | 85 | 1004.8 |
| 20260506002816 | 26 | 90 | 19.3 | 37.0 | 0.00 | 0.00 | 0.00 | 85 | 1004.8 |
| 20260506002320 | 26 | 157 | 19.3 | 37.0 | 0.00 | 0.00 | 0.00 | 85 | 1004.8 |
| 20260506001816 | 26 | 157 | 19.3 | 30.6 | 0.00 | 0.00 | 0.00 | 85 | 1004.8 |
| 20260506001324 | 26 | 90 | 17.7 | 29.0 | 0.00 | 0.00 | 0.00 | 85 | 1004.8 |
| 20260506000809 | 26 | 171 | 20.9 | 30.6 | 0.00 | 0.00 | 0.00 | 85 | 1004.8 |
| 20260506000258 | 26 | 90 | 20.9 | 33.8 | 0.00 | 0.00 | 0.00 | 85 | 1004.8 |
| 20260505235744 | 26 | 158 | 19.3 | 33.8 | 0.00 | 0.00 | 0.00 | 84 | 1004.6 |
| 20260505235239 | 26 | 143 | 19.3 | 37.0 | 0.00 | 0.00 | 0.00 | 84 | 1004.6 |
| 20260505234733 | 26 | 145 | 20.9 | 37.0 | 0.00 | 0.00 | 0.00 | 84 | 1004.6 |
| 20260505234229 | 26 | 161 | 24.1 | 37.0 | 0.00 | 0.00 | 0.00 | 84 | 1004.8 |
| 20260505233727 | 26 | 157 | 22.5 | 37.0 | 0.00 | 0.00 | 0.00 | 84 | 1004.8 |
| 20260505233225 | 26 | 175 | 19.3 | 35.4 | 0.00 | 0.00 | 0.00 | 84 | 1004.8 |
| 20260505232945 | 26 | 90 | 17.7 | 37.0 | 0.00 | 0.00 | 0.00 | 84 | 1004.9 |
| 20260505232227 | 26 | 155 | 19.3 | 37.0 | 0.00 | 0.00 | 0.00 | 84 | 1004.9 |
| 20260505231726 | 26 | 170 | 19.3 | 37.0 | 0.00 | 0.00 | 0.00 | 84 | 1004.9 |
| 20260505231458 | 26 | 167 | 20.9 | 37.0 | 0.00 | 0.00 | 0.00 | 84 | 1004.8 |
| 20260505230731 | 26 | 144 | 20.9 | 33.8 | 0.00 | 0.00 | 0.00 | 84 | 1004.8 |
| 20260505230225 | 26 | 90 | 20.9 | 35.4 | 0.00 | 0.00 | 0.00 | 84 | 1004.8 |
| 20260505225727 | 26 | 155 | 22.5 | 35.4 | 0.00 | 0.00 | 0.00 | 84 | 1005.1 |
| 20260505225500 | 26 | 148 | 24.1 | 35.4 | 0.00 | 0.00 | 0.00 | 83 | 1005.1 |
| 20260505224942 | 26 | 172 | 24.1 | 37.0 | 0.00 | 0.00 | 0.00 | 83 | 1005.1 |
| 20260505223717 | 26 | 90 | 20.9 | 33.8 | 0.00 | 0.00 | 0.00 | 83 | 1005.1 |
| 20260505223210 | 27 | 130 | 19.3 | 33.8 | 0.00 | 0.00 | 0.00 | 83 | 1005.1 |
| 20260505222659 | 27 | 90 | 19.3 | 32.2 | 0.00 | 0.00 | 0.00 | 83 | 1005.1 |
| 20260505222159 | 27 | 162 | 19.3 | 32.2 | 0.00 | 0.00 | 0.00 | 83 | 1005.1 |
| 20260505221658 | 27 | 152 | 19.3 | 30.6 | 0.00 | 0.00 | 0.00 | 83 | 1005.1 |
| 20260505221200 | 27 | 156 | 19.3 | 30.6 | 0.00 | 0.00 | 0.00 | 83 | 1005.3 |
| 20260505220656 | 27 | 153 | 19.3 | 30.6 | 0.00 | 0.00 | 0.00 | 83 | 1005.3 |
| 20260505220155 | 27 | 140 | 19.3 | 30.6 | 0.00 | 0.00 | 0.00 | 83 | 1005.3 |
| 20260505215655 | 27 | 130 | 17.7 | 32.2 | 0.00 | 0.00 | 0.00 | 83 | 1005.6 |
| 20260505215156 | 27 | 151 | 19.3 | 32.2 | 0.00 | 0.00 | 0.00 | 83 | 1005.6 |
| 20260505214655 | 27 | 144 | 19.3 | 30.6 | 0.00 | 0.00 | 0.00 | 83 | 1005.6 |
| 20260505214155 | 27 | 90 | 20.9 | 33.8 | 0.00 | 0.00 | 0.00 | 83 | 1005.6 |
| 20260505213928 | 27 | 183 | 20.9 | 33.8 | 0.00 | 0.00 | 0.00 | 83 | 1005.6 |
| 20260505213155 | 27 | 161 | 16.1 | 30.6 | 0.00 | 0.00 | 0.00 | 83 | 1005.6 |
| 20260505212657 | 27 | 134 | 16.1 | 29.0 | 0.00 | 0.00 | 0.00 | 83 | 1005.7 |
| 20260505212420 | 27 | 150 | 19.3 | 29.0 | 0.00 | 0.00 | 0.00 | 83 | 1005.7 |
| 20260505211700 | 27 | 155 | 17.7 | 27.4 | 0.00 | 0.00 | 0.00 | 82 | 1005.7 |
| 20260505211201 | 27 | 166 | 16.1 | 27.4 | 0.00 | 0.00 | 0.00 | 82 | 1005.9 |
| 20260505210912 | 27 | 161 | 14.5 | 27.4 | 0.00 | 0.00 | 0.00 | 82 | 1005.9 |
| 20260505205646 | 27 | 134 | 19.3 | 32.2 | 0.00 | 0.00 | 0.00 | 82 | 1006.1 |
| 20260505205147 | 27 | 161 | 20.9 | 33.8 | 0.00 | 0.00 | 0.00 | 82 | 1006.1 |
| 20260505204643 | 27 | 163 | 20.9 | 33.8 | 0.00 | 0.00 | 0.00 | 82 | 1006.1 |
| 20260505204407 | 27 | 181 | 19.3 | 33.8 | 0.00 | 0.00 | 0.00 | 82 | 1006.3 |
| 20260505203642 | 27 | 170 | 19.3 | 35.4 | 0.00 | 0.00 | 0.00 | 83 | 1006.3 |
| 20260505203138 | 27 | 161 | 19.3 | 35.4 | 0.00 | 0.00 | 0.00 | 83 | 1006.3 |
| 20260505202638 | 27 | 90 | 17.7 | 33.8 | 0.00 | 0.00 | 0.00 | 83 | 1006.6 |
| 20260505202137 | 27 | 172 | 17.7 | 32.2 | 0.00 | 0.00 | 0.00 | 83 | 1006.6 |
| 20260505201636 | 27 | 90 | 19.3 | 35.4 | 0.00 | 0.00 | 0.00 | 83 | 1006.6 |
| 20260505201136 | 27 | 90 | 20.9 | 35.4 | 0.00 | 0.00 | 0.00 | 83 | 1006.6 |
| 20260505200637 | 27 | 190 | 19.3 | 29.0 | 0.00 | 0.00 | 0.00 | 83 | 1006.6 |
| 20260505200138 | 27 | 90 | 17.7 | 29.0 | 0.00 | 0.00 | 0.00 | 83 | 1006.6 |
| 20260505195854 | 27 | 165 | 17.7 | 32.2 | 0.00 | 0.00 | 0.00 | 83 | 1006.7 |
| 20260505195122 | 27 | 90 | 19.3 | 33.8 | 0.00 | 0.00 | 0.00 | 83 | 1006.7 |
| 20260505194616 | 27 | 90 | 17.7 | 32.2 | 0.00 | 0.00 | 0.00 | 83 | 1006.7 |
| 20260505194338 | 27 | 165 | 16.1 | 33.8 | 0.00 | 0.00 | 0.00 | 83 | 1006.8 |
| 20260505193556 | 27 | 90 | 16.1 | 33.8 | 0.00 | 0.00 | 0.00 | 83 | 1006.8 |
| 20260505193046 | 27 | 201 | 12.9 | 29.0 | 0.00 | 0.00 | 0.00 | 83 | 1006.8 |
| 20260505192753 | 27 | 90 | 11.3 | 22.5 | 0.00 | 0.00 | 0.00 | 83 | 1007.0 |
| 20260505192026 | 27 | 90 | 11.3 | 22.5 | 0.00 | 0.00 | 0.00 | 83 | 1007.0 |
| 20260505191743 | 27 | 183 | 12.9 | 25.7 | 0.00 | 0.00 | 0.00 | 83 | 1007.0 |
| 20260505191017 | 27 | 178 | 16.1 | 27.4 | 0.00 | 0.00 | 0.00 | 83 | 1007.1 |
| 20260505190518 | 27 | 168 | 17.7 | 29.0 | 0.00 | 0.00 | 0.00 | 83 | 1007.1 |
| 20260505190017 | 27 | 188 | 17.7 | 29.0 | 0.00 | 0.00 | 0.00 | 83 | 1007.1 |
| 20260505185516 | 27 | 90 | 14.5 | 27.4 | 0.00 | 0.00 | 0.00 | 83 | 1007.2 |
| 20260505185017 | 27 | 90 | 16.1 | 30.6 | 0.00 | 0.00 | 0.00 | 84 | 1007.2 |
| 20260505184516 | 27 | 90 | 17.7 | 30.6 | 0.00 | 0.00 | 0.00 | 84 | 1007.2 |
| 20260505184016 | 27 | 163 | 16.1 | 30.6 | 0.00 | 0.00 | 0.00 | 84 | 1007.2 |
| 20260505183519 | 27 | 196 | 14.5 | 30.6 | 0.00 | 0.00 | 0.00 | 84 | 1007.2 |
| 20260505183014 | 27 | 90 | 12.9 | 24.1 | 0.00 | 0.00 | 0.00 | 84 | 1007.2 |
| 20260505182514 | 27 | 191 | 12.9 | 24.1 | 0.00 | 0.00 | 0.00 | 84 | 1007.2 |
| 20260505182014 | 27 | 180 | 14.5 | 24.1 | 0.00 | 0.00 | 0.00 | 84 | 1007.2 |
| 20260505181010 | 27 | 90 | 14.5 | 30.6 | 0.00 | 0.00 | 0.00 | 84 | 1007.3 |
| 20260505180501 | 27 | 149 | 14.5 | 32.2 | 0.00 | 0.00 | 0.00 | 84 | 1007.3 |
| 20260505175951 | 27 | 184 | 16.1 | 32.2 | 0.00 | 0.00 | 0.00 | 84 | 1007.5 |
| 20260505175444 | 26 | 205 | 14.5 | 25.7 | 0.00 | 0.00 | 0.00 | 84 | 1007.5 |
| 20260505174937 | 26 | 178 | 14.5 | 30.6 | 0.00 | 0.00 | 0.00 | 84 | 1007.5 |
| 20260505174431 | 26 | 179 | 14.5 | 30.6 | 0.00 | 0.00 | 0.00 | 85 | 1007.5 |
| 20260505173917 | 26 | 188 | 14.5 | 30.6 | 0.00 | 0.00 | 0.00 | 85 | 1007.5 |
| 20260505173423 | 26 | 190 | 14.5 | 29.0 | 0.00 | 0.00 | 0.00 | 85 | 1007.5 |
| 20260505173141 | 26 | 164 | 14.5 | 29.0 | 0.00 | 0.00 | 0.00 | 85 | 1007.7 |
| 20260505172420 | 26 | 178 | 14.5 | 29.0 | 0.00 | 0.00 | 0.00 | 85 | 1007.7 |
| 20260505172139 | 26 | 196 | 14.5 | 29.0 | 0.00 | 0.00 | 0.00 | 85 | 1007.7 |
| 20260505171420 | 26 | 182 | 14.5 | 29.0 | 0.00 | 0.00 | 0.00 | 85 | 1007.7 |
| 20260505170917 | 26 | 200 | 14.5 | 24.1 | 0.00 | 0.00 | 0.00 | 86 | 1007.7 |
| 20260505170418 | 26 | 201 | 16.1 | 14.5 | 0.00 | 0.00 | 0.00 | 86 | 1007.7 |
| 20260505165909 | 26 | 211 | 16.1 | 27.4 | 0.00 | 0.00 | 0.00 | 86 | 1007.7 |
| 20260505165406 | 26 | 198 | 14.5 | 25.7 | 0.00 | 0.00 | 0.00 | 86 | 1007.7 |
| 20260505164909 | 26 | 232 | 14.5 | 30.6 | 0.00 | 0.00 | 0.00 | 86 | 1007.7 |
| 20260505164625 | 26 | 203 | 14.5 | 30.6 | 0.00 | 0.00 | 0.00 | 86 | 1007.7 |
| 20260505163909 | 26 | 207 | 12.9 | 27.4 | 0.00 | 0.00 | 0.00 | 86 | 1007.7 |
| 20260505163407 | 26 | 234 | 11.3 | 27.4 | 0.00 | 0.00 | 0.00 | 87 | 1007.7 |
| 20260505162853 | 26 | 198 | 12.9 | 22.5 | 0.00 | 0.00 | 0.00 | 87 | 1007.7 |
| 20260505162606 | 25 | 191 | 12.9 | 27.4 | 0.00 | 0.00 | 0.00 | 87 | 1007.7 |
| 20260505161839 | 25 | 202 | 12.9 | 27.4 | 0.00 | 0.00 | 0.00 | 87 | 1007.7 |
| 20260505161333 | 25 | 234 | 12.9 | 27.4 | 0.00 | 0.00 | 0.00 | 87 | 1007.7 |
| 20260505160832 | 25 | 197 | 11.3 | 27.4 | 0.00 | 0.00 | 0.00 | 87 | 1007.7 |
| 20260505160333 | 25 | 202 | 11.3 | 24.1 | 0.00 | 0.00 | 0.00 | 87 | 1007.7 |
| 20260505153332 | 25 | 207 | 12.9 | 27.4 | 0.00 | 0.00 | 0.00 | 88 | 1007.6 |
| 20260505152831 | 25 | 186 | 12.9 | 27.4 | 0.00 | 0.00 | 0.00 | 88 | 1007.5 |
| 20260505152332 | 25 | 120 | 11.3 | 22.5 | 0.00 | 0.00 | 0.00 | 88 | 1007.5 |
| 20260505151832 | 25 | 184 | 11.3 | 20.9 | 0.00 | 0.00 | 0.00 | 88 | 1007.5 |
| 20260505151331 | 25 | 173 | 12.9 | 25.7 | 0.00 | 0.00 | 0.00 | 88 | 1007.3 |
| 20260505150821 | 25 | 182 | 14.5 | 27.4 | 0.00 | 0.00 | 0.00 | 88 | 1007.3 |
| 20260505150317 | 25 | 90 | 12.9 | 25.7 | 0.00 | 0.00 | 0.00 | 88 | 1007.3 |
| 20260505140641 | 24 | 194 | 12.9 | 25.7 | 0.00 | 0.00 | 0.00 | 88 | 1007.3 |
| 20260505140134 | 23 | 178 | 14.5 | 25.7 | 0.00 | 0.00 | 0.00 | 88 | 1007.3 |
| 20260505125041 | 23 | 202 | 11.3 | 22.5 | 0.00 | 0.00 | 0.00 | 88 | 1007.1 |
| 20260505124803 | 23 | 90 | 11.3 | 17.7 | 0.00 | 0.00 | 0.00 | 88 | 1007.1 |
| 20260505124042 | 23 | 90 | 11.3 | 20.9 | 0.00 | 0.00 | 0.00 | 88 | 1007.0 |
| 20260505123540 | 23 | 176 | 12.9 | 20.9 | 0.00 | 0.00 | 0.00 | 88 | 1007.0 |
| 20260505123038 | 23 | 164 | 12.9 | 20.9 | 0.00 | 0.00 | 0.00 | 88 | 1007.0 |
| 20260505122539 | 23 | 168 | 12.9 | 22.5 | 0.00 | 0.00 | 0.00 | 88 | 1006.6 |
| 20260505122040 | 22 | 90 | 12.9 | 22.5 | 0.00 | 0.00 | 0.00 | 88 | 1006.6 |
| 20260505121757 | 22 | 191 | 12.9 | 22.5 | 0.00 | 0.00 | 0.00 | 88 | 1006.6 |
| 20260505121245 | 22 | 166 | 11.3 | 22.5 | 0.00 | 0.00 | 0.00 | 88 | 1006.6 |
| 20260505120519 | 22 | 90 | 11.3 | 17.7 | 0.00 | 0.00 | 0.00 | 88 | 1006.6 |
| 20260505120018 | 22 | 163 | 11.3 | 17.7 | 0.00 | 0.00 | 0.00 | 88 | 1006.6 |
| 20260505115745 | 22 | 170 | 11.3 | 17.7 | 0.00 | 0.00 | 0.00 | 88 | 1006.7 |
| 20260505115016 | 22 | 152 | 9.7 | 17.7 | 0.00 | 0.00 | 0.00 | 88 | 1006.7 |
| 20260505114740 | 22 | 166 | 11.3 | 17.7 | 0.00 | 0.00 | 0.00 | 88 | 1006.7 |
| 20260505114016 | 22 | 90 | 9.7 | 17.7 | 0.00 | 0.00 | 0.00 | 88 | 1006.7 |
| 20260505113517 | 22 | 170 | 9.7 | 14.5 | 0.00 | 0.00 | 0.00 | 88 | 1006.7 |
| 20260505113236 | 22 | 155 | 9.7 | 12.9 | 0.00 | 0.00 | 0.00 | 88 | 1006.7 |
| 20260505112514 | 22 | 160 | 9.7 | 14.5 | 0.00 | 0.00 | 0.00 | 88 | 1006.7 |
| 20260505112234 | 22 | 157 | 9.7 | 16.1 | 0.00 | 0.00 | 0.00 | 88 | 1006.7 |
| 20260505111513 | 22 | 161 | 9.7 | 16.1 | 0.00 | 0.00 | 0.00 | 88 | 1006.7 |
| 20260505111012 | 22 | 90 | 9.7 | 16.1 | 0.00 | 0.00 | 0.00 | 88 | 1006.7 |
| 20260505110505 | 22 | 161 | 9.7 | 16.1 | 0.00 | 0.00 | 0.00 | 88 | 1006.7 |
| 20260505101843 | 22 | 166 | 11.3 | 19.3 | 0.00 | 0.00 | 0.00 | 87 | 1006.6 |
| 20260505101330 | 22 | 164 | 11.3 | 20.9 | 0.00 | 0.00 | 0.00 | 87 | 1006.8 |
| 20260505100820 | 22 | 90 | 11.3 | 20.9 | 0.00 | 0.00 | 0.00 | 87 | 1006.8 |
| 20260505100314 | 22 | 90 | 11.3 | 19.3 | 0.00 | 0.00 | 0.00 | 87 | 1006.8 |
| 20260505095803 | 22 | 164 | 9.7 | 20.9 | 0.00 | 0.00 | 0.00 | 87 | 1006.8 |
| 20260505095249 | 22 | 90 | 9.7 | 17.7 | 0.00 | 0.00 | 0.00 | 87 | 1006.8 |
| 20260505094743 | 22 | 161 | 9.7 | 17.7 | 0.00 | 0.00 | 0.00 | 87 | 1006.8 |
| 20260505094233 | 22 | 189 | 9.7 | 16.1 | 0.00 | 0.00 | 0.00 | 87 | 1007.1 |
| 20260505093950 | 22 | 186 | 9.7 | 20.9 | 0.00 | 0.00 | 0.00 | 87 | 1007.1 |
| 20260505093218 | 22 | 90 | 9.7 | 20.9 | 0.00 | 0.00 | 0.00 | 87 | 1007.1 |